Weather History for Hong Kong, HK

Change the Weather History Date:

Saturday, March 2, 2013

  Actual Average Record
Temperature  
Mean Temperature 64 °F -  
Max Temperature 69 °F 71 °F 78 °F (2003)
Min Temperature 59 °F 63 °F 50 °F (2006)
Growing Degree Days 14 (Base 50)    
Moisture  
Dew Point 60 °F    
Average Humidity 80    
Maximum Humidity 94    
Minimum Humidity 55    
Precipitation  
Precipitation 0.00 in - - ()
Sea Level Pressure  
Sea Level Pressure 30.11 in    
Wind  
Wind Speed 10 mph ()    
Max Wind Speed 22 mph    
Max Gust Speed -    
Visibility 5.6 miles    
Events Rain    
Averages and records for this station are not official NWS values.
T = Trace of Precipitation, MM = Missing Value Source: Averaged Metar Reports

Daily Weather History Graph

Daily Weather History Graph

Search for Another Location

Airport:

Trip Planner

Search our weather history database for the weather conditions in past years. The results will help you decide how hot, cold, wet, or windy it might be!

Date:

Astronomy

Mar. 02, 2013 Rise Set
Actual Time 6:44 AM HKT 6:28 PM HKT
Civil Twilight 6:22 AM HKT 6:50 PM HKT
Nautical Twilight 5:56 AM HKT 7:16 PM HKT
Astronomical Twilight 5:30 AM HKT 7:42 PM HKT
Moon 10:48 PM HKT (3/2) 9:27 AM HKT (3/2)
Length of Visible Light 12h 28m
Length of Day
11h 43m
Waning Gibbous, 79% of the Moon is Illuminated
Mar 2
Waning Gibbous
Mar 5
Last Quarter
Mar 12
New
Mar 20
First Quarter
Mar 27
Full

Hourly Weather History & Observations

Time (HKT) Temp. Dew Point Humidity Pressure Visibility Wind Dir Wind Speed Gust Speed Precip Events Conditions
12:00 AM 75.2 °F 69.8 °F 83% 29.98 in 5.0 mi ENE 8.1 mph - N/A   Scattered Clouds
12:30 AM 75.2 °F 69.8 °F 83% 29.98 in 5.6 mi East 8.1 mph - N/A   Scattered Clouds
1:00 AM 73.4 °F 69.8 °F 88% 29.98 in 6.2 mi East 4.6 mph - N/A   Scattered Clouds
1:30 AM 73.4 °F 69.8 °F 88% 29.98 in 4.3 mi ENE 6.9 mph - N/A   Scattered Clouds
2:00 AM 72 °F 69 °F 87% 29.99 in 3 mi ENE 6.7 mph - -   Mostly Cloudy
2:00 AM 73.4 °F 69.8 °F 88% 29.98 in 4.3 mi ENE 6.9 mph - N/A   Scattered Clouds
2:30 AM 71.6 °F 69.8 °F 94% 29.98 in 4.3 mi ENE 6.9 mph - N/A   Scattered Clouds
3:00 AM 71.6 °F 68.0 °F 88% 29.98 in 5.0 mi East 8.1 mph - N/A   Scattered Clouds
3:30 AM 71.6 °F 68.0 °F 88% 29.98 in 6.2 mi East 8.1 mph - N/A   Scattered Clouds
4:00 AM 71.6 °F 69.8 °F 94% 29.98 in 6.2 mi East 8.1 mph - N/A   Scattered Clouds
4:30 AM 73.4 °F 69.8 °F 88% 29.98 in 6.2 mi East 8.1 mph - N/A   Scattered Clouds
5:00 AM 73.4 °F 69.8 °F 88% 29.98 in 6.2 mi East 8.1 mph - N/A   Scattered Clouds
5:30 AM 71.6 °F 68.0 °F 88% 30.01 in 6.2 mi East 8.1 mph - N/A   Scattered Clouds
6:00 AM 73.4 °F 69.8 °F 88% 30.01 in 5.6 mi ENE 9.2 mph - N/A   Scattered Clouds
6:30 AM 71.6 °F 69.8 °F 94% 30.04 in 5.0 mi East 9.2 mph - N/A   Scattered Clouds
7:00 AM 73.4 °F 69.8 °F 88% 30.04 in 4.3 mi East 9.2 mph - N/A   Scattered Clouds
7:30 AM 73.4 °F 69.8 °F 88% 30.06 in 5.6 mi ESE 10.4 mph - N/A   Scattered Clouds
8:00 AM 69 °F 64 °F 79% 30.09 in 11 mi ESE 17.9 mph - -   Mostly Cloudy
8:00 AM 69.8 °F 64.4 °F 83% 30.06 in 6.2 mi ESE 18.4 mph - N/A   Scattered Clouds
8:30 AM 68.0 °F 62.6 °F 83% 30.09 in 6.2 mi East 20.7 mph - N/A Rain Light Rain
9:00 AM 66.2 °F 60.8 °F 83% 30.12 in 6.2 mi ESE 19.6 mph - N/A Rain Light Rain
9:30 AM 66.2 °F 59.0 °F 78% 30.15 in 6.2 mi ESE 21.9 mph - N/A   Scattered Clouds
10:00 AM 64.4 °F 59.0 °F 83% 30.15 in 6.2 mi ESE 21.9 mph - N/A   Scattered Clouds
10:30 AM 64.4 °F 59.0 °F 83% 30.15 in 6.2 mi East 19.6 mph - N/A   Scattered Clouds
11:00 AM 64.4 °F 59.0 °F 83% 30.18 in 6.2 mi East 15.0 mph - N/A   Scattered Clouds
11:30 AM 64.4 °F 59.0 °F 83% 30.18 in 6.2 mi East 17.3 mph - N/A   Scattered Clouds
12:00 PM 64.4 °F 59.0 °F 83% 30.15 in 6.2 mi ESE 12.7 mph - N/A Rain Light Rain
12:30 PM 64.4 °F 59.0 °F 83% 30.15 in 6.2 mi ESE 12.7 mph - N/A Rain Light Rain
1:00 PM 64.4 °F 59.0 °F 83% 30.15 in 6.2 mi ESE 13.8 mph - N/A Rain Light Rain
1:30 PM 62.6 °F 59.0 °F 88% 30.15 in 3.7 mi ENE 12.7 mph - N/A Rain Light Rain
2:00 PM 62 °F 60 °F 90% 30.15 in 2 mi NE 15.7 mph - - Rain Light Rain
2:00 PM 62.6 °F 59.0 °F 88% 30.15 in - NE 15.0 mph - N/A Rain Light Rain
2:30 PM 62.6 °F 59.0 °F 88% 30.12 in 2.8 mi NE 13.8 mph - N/A Rain Light Rain
3:00 PM 60.8 °F 59.0 °F 94% 30.12 in 3.1 mi NE 12.7 mph - N/A Rain Light Rain
3:15 PM 62.6 °F 59.0 °F 88% 30.12 in - NE 12.7 mph - N/A Rain Light Rain
3:30 PM 62.6 °F 59.0 °F 88% 30.12 in 1.8 mi NE 11.5 mph - N/A Rain Light Rain
4:00 PM 60.8 °F 57.2 °F 88% 30.12 in 2.2 mi NNE 9.2 mph - N/A Rain Light Rain
4:30 PM 62.6 °F 57.2 °F 82% 30.12 in 3.7 mi NNE 8.1 mph - N/A   Scattered Clouds
5:00 PM 60.8 °F 53.6 °F 77% 30.15 in 6.2 mi ENE 9.2 mph - N/A   Scattered Clouds
5:30 PM 62.6 °F 53.6 °F 72% 30.15 in 6.2 mi NNE 8.1 mph - N/A   Scattered Clouds
6:00 PM 62.6 °F 51.8 °F 68% 30.15 in 6.2 mi ENE 10.4 mph - N/A   Scattered Clouds
6:30 PM 62.6 °F 50.0 °F 63% 30.18 in 6.2 mi ENE 11.5 mph - N/A   Scattered Clouds
7:00 PM 62.6 °F 50.0 °F 63% 30.18 in 6.2 mi NE 9.2 mph - N/A   Scattered Clouds
7:30 PM 60.8 °F 50.0 °F 68% 30.18 in 6.2 mi NE 9.2 mph - N/A   Scattered Clouds
8:00 PM 61 °F 49 °F 55% 30.21 in 9 mi NE 11.2 mph - -   Partly Cloudy
8:00 PM 60.8 °F 50.0 °F 68% 30.18 in 6.2 mi NE 10.4 mph - N/A   Scattered Clouds
8:30 PM 60.8 °F 50.0 °F 68% 30.21 in 6.2 mi NE 9.2 mph - N/A   Scattered Clouds
9:00 PM 60.8 °F 50.0 °F 68% 30.21 in 6.2 mi NE 8.1 mph - N/A   Scattered Clouds
9:30 PM 60.8 °F 48.2 °F 63% 30.24 in 6.2 mi NE 11.5 mph - N/A   Scattered Clouds
10:00 PM 60.8 °F 48.2 °F 63% 30.24 in 6.2 mi NE 11.5 mph - N/A   Scattered Clouds
10:30 PM 60.8 °F 46.4 °F 59% 30.24 in 6.2 mi NE 10.4 mph - N/A   Scattered Clouds
11:00 PM 60.8 °F 46.4 °F 59% 30.24 in 6.2 mi NE 10.4 mph - N/A   Scattered Clouds
11:30 PM 59.0 °F 46.4 °F 63% 30.24 in 6.2 mi NNE 11.5 mph - N/A   Scattered Clouds